Home   Weather   São Paulo   Past weeks

Flag for Brazil Past Weather in São Paulo, São Paulo, Brazil — Yesterday and Last 2 Weeks

Now
77 °F

Sunny.


Feels Like: 79 °F
Forecast: 65 / 80 °F
Wind: 5 mph from Northwest

Location: Sao Paulo Airport

Current Time: Oct 21, 2017 at 7:26:10 pm

Latest Report: Oct 21, 2017 at 7:00 pm


Visibility: 10 mi

Pressure: 30.04 "Hg (27.52 "Hg at 765m altitude)

Humidity: 54%

Dew Point: 59 °F

Location of São PauloLocation

Past Weather in São Paulo — Graph

°F

São Paulo Temperature Yesterday

Maximum temperature yesterday: 73 °F (at 2:00 pm)
Minimum temperature yesterday: 66 °F (at 5:00 am)
Average temperature yesterday: 69 °F

High & Low Weather Summary for the Past Weeks

 TemperatureHumidityPressure
High93 °F (Oct 12, 2:00 pm)94% (Oct 7, 8:36 pm)30.30 "Hg (Oct 7, 8:36 pm)
Low59 °F (Oct 15, 4:35 am)22% (Oct 6, 6:00 pm)29.92 "Hg (Oct 13, 4:00 pm)
Average71 °F70%30.09 "Hg
* Reported Oct 6 5:00 pm — Oct 21 6:00 pm, São Paulo. Weather by CustomWeather, © 2017

Note: Actual official high and low records may vary slightly from our data, if they occured in-between our weather recording intervals... More about our weather records

Advertising

São Paulo Weather History for the Previous 24 Hours

Scroll right to see more
 ConditionsComfort  
Time TempWeatherWind HumidityBarometerVisibility
6:00 pm
Sat, Oct 21
77 °FSunny.6 mph51%30.01 "Hg10 mi
5:00 pm77 °FSunny.5 mph54%30.01 "Hg10 mi
4:00 pm77 °FScattered clouds.8 mph54%30.04 "HgN/A
3:00 pm77 °FSunny.7 mph54%30.04 "Hg10 mi
2:00 pm77 °FSunny.7 mph57%30.07 "Hg10 mi
1:00 pm77 °FSunny.3 mph54%30.09 "Hg10 mi
12:00 pm73 °FSunny.5 mph61%30.09 "Hg10 mi
11:00 am73 °FSunny.6 mph61%30.12 "Hg10 mi
10:00 am70 °FSunny.5 mph69%30.15 "Hg10 mi
9:00 am70 °FSunny.6 mph73%30.12 "Hg10 mi
8:00 am68 °FClear.3 mph78%30.12 "Hg6 mi
7:00 am66 °FClear.5 mph83%30.09 "Hg6 mi
6:00 am66 °FClear.2 mph83%30.09 "Hg10 mi
5:00 am66 °FPassing clouds.7 mph83%30.09 "HgN/A
4:00 am66 °FLight rain. Overcast.1 mph83%30.09 "Hg6 mi
3:00 am66 °FPassing clouds.5 mph83%30.09 "HgN/A
2:00 am66 °FPassing clouds.7 mph83%30.09 "HgN/A
1:00 am66 °FPassing clouds.7 mph83%30.12 "HgN/A
12:00 am66 °FMild.3 mph83%30.12 "Hg6 mi
11:01 pm
Fri, Oct 20
66 °FPassing clouds.3 mph83%30.12 "Hg5 mi
10:00 pm66 °FMostly cloudy.8 mph83%30.15 "HgN/A
9:00 pm66 °FMostly cloudy.9 mph83%30.12 "HgN/A
8:00 pm66 °FLow clouds.10 mph83%30.12 "HgN/A
7:00 pm66 °FLight rain. More clouds than sun.13 mph83%30.12 "HgN/A
Weather by CustomWeather, © 2017

See weather overview